Pagosa Springs, CO

4:42 AM MDT on April 26, 2017 (GMT -0600)
Pagosa Springs

Weather History for KPSO - February, 2013

Change the Weather History Date:

Wednesday, February 27, 2013

  Actual Average (KE33) Record (KE33)
Temperature  
Mean Temperature 16 °F -  
Max Temperature 33 °F 35 °F 55 °F (2006)
Min Temperature -2 °F 18 °F 5 °F (2002)
Degree Days  
Heating Degree Days 50    
Moisture  
Dew Point 0 °F    
Average Humidity 54    
Maximum Humidity 87    
Minimum Humidity 21    
Precipitation  
Precipitation 0.00 in - - ()
Sea Level Pressure  
Sea Level Pressure 30.16 in    
Wind  
Wind Speed 2 mph (SSW)    
Max Wind Speed 12 mph    
Max Gust Speed 18 mph    
Visibility 10 miles    
Events      
Averages and records for this station are not official NWS values.
T = Trace of Precipitation, MM = Missing Value Source: NWS Daily Summary

Daily Weather History Graph

Daily Weather History Graph

Search for Another Location

Airport or City:

Trip Planner

Search our weather history database for the weather conditions in past years. The results will help you decide how hot, cold, wet, or windy it might be!

Date:

Astronomy

Feb. 27, 2013 Rise Set
Actual Time 6:41 AM MST 6:00 PM MST
Civil Twilight 6:15 AM MST 6:26 PM MST
Nautical Twilight 5:45 AM MST 6:57 PM MST
Astronomical Twilight 5:15 AM MST 7:27 PM MST
Moon 8:20 PM MST (2/27) 7:22 AM MST (2/27)
Length of Visible Light 12h 11m
Length of Day
11h 18m
Waning Gibbous, 96% of the Moon is Illuminated
Feb 27
Waning Gibbous
Mar 4
Last Quarter
Mar 11
New
Mar 19
First Quarter
Mar 27
Full

Hourly Weather History & Observations

Time (MST) Temp. Windchill Dew Point Humidity Pressure Visibility Wind Dir Wind Speed Gust Speed Precip Events Conditions
12:15 AM 7.2 °F - 1.4 °F 77% 30.04 in 10.0 mi Calm Calm - N/A   Clear
12:35 AM 5.0 °F - 1.0 °F 84% 30.04 in 10.0 mi Calm Calm - N/A   Clear
1:15 AM 1.9 °F - -3.5 °F 78% 30.06 in 10.0 mi Calm Calm - N/A   Clear
1:55 AM 6.6 °F - -0.0 °F 74% 30.07 in 10.0 mi Calm Calm - N/A   Clear
2:15 AM 4.1 °F - -1.8 °F 76% 30.07 in 10.0 mi Calm Calm - N/A   Clear
2:35 AM 1.8 °F - -3.8 °F 77% 30.07 in 10.0 mi Calm Calm - N/A   Clear
2:55 AM 0.5 °F - -4.4 °F 80% 30.08 in 10.0 mi Calm Calm - N/A   Clear
3:15 AM 3.6 °F - -2.6 °F 76% 30.08 in 10.0 mi Calm Calm - N/A   Clear
3:35 AM 3.0 °F - -0.8 °F 84% 30.08 in 10.0 mi Calm Calm - N/A   Clear
3:55 AM 1.8 °F - -3.1 °F 80% 30.09 in 10.0 mi Calm Calm - N/A   Clear
4:15 AM 1.4 °F - -1.8 °F 86% 30.09 in 10.0 mi Calm Calm - N/A   Clear
4:35 AM -0.6 °F - -6.2 °F 77% 30.10 in 10.0 mi Calm Calm - N/A   Clear
4:55 AM -0.2 °F - -4.5 °F 82% 30.11 in 10.0 mi Calm Calm - N/A   Clear
5:15 AM -2.9 °F - -6.2 °F 86% 30.12 in 10.0 mi Calm Calm - N/A   Clear
5:35 AM -0.6 °F - -5.1 °F 81% 30.12 in 10.0 mi Calm Calm - N/A   Clear
5:55 AM 0.7 °F - -3.1 °F 84% 30.13 in 10.0 mi Calm Calm - N/A   Clear
6:35 AM -2.9 °F - -6.3 °F 85% 30.15 in 10.0 mi Calm Calm - N/A   Clear
6:55 AM -2.9 °F - -6.0 °F 87% 30.15 in 10.0 mi Calm Calm - N/A   Clear
7:15 AM 1.0 °F - -2.2 °F 86% 30.16 in 10.0 mi Calm Calm - N/A   Clear
7:35 AM 1.0 °F - -5.4 °F 74% 30.17 in 10.0 mi Calm Calm - N/A   Clear
7:55 AM 5.2 °F - -0.2 °F 78% 30.18 in 10.0 mi Calm Calm - N/A   Clear
8:15 AM 7.3 °F - -0.8 °F 69% 30.19 in 10.0 mi Calm Calm - N/A   Clear
8:35 AM 9.7 °F - -0.8 °F 63% 30.19 in 10.0 mi Calm Calm - N/A   Clear
8:55 AM 16.5 °F - 1.8 °F 52% 30.19 in 10.0 mi Calm Calm - N/A   Clear
9:15 AM 16.0 °F - 0.1 °F 50% 30.19 in 10.0 mi Calm Calm - N/A   Clear
9:35 AM 17.8 °F - -0.4 °F 45% 30.20 in 10.0 mi Calm Calm - N/A   Clear
9:55 AM 21.2 °F - -0.0 °F 40% 30.20 in 10.0 mi Calm Calm - N/A   Clear
10:15 AM 23.0 °F 15.8 °F 0.5 °F 38% 30.21 in 10.0 mi SW 5.8 mph - N/A   Clear
10:35 AM 24.1 °F 18.2 °F 0.7 °F 36% 30.21 in 10.0 mi SSW 4.6 mph - N/A   Clear
10:55 AM 25.3 °F - 0.5 °F 34% 30.20 in 10.0 mi Calm Calm - N/A   Clear
11:15 AM 26.6 °F 21.2 °F 1.0 °F 33% 30.20 in 10.0 mi South 4.6 mph - N/A   Clear
11:35 AM 27.5 °F 23.6 °F -0.6 °F 30% 30.20 in 10.0 mi South 3.5 mph - N/A   Clear
11:55 AM 28.9 °F 23.9 °F -1.3 °F 27% 30.19 in 10.0 mi South 4.6 mph - N/A   Clear
12:15 PM 29.5 °F 24.5 °F -0.4 °F 28% 30.19 in 10.0 mi SSW 4.6 mph - N/A   Clear
12:35 PM 30.2 °F 24.3 °F 0.9 °F 29% 30.17 in 10.0 mi SSW 5.8 mph - N/A   Clear
12:55 PM 31.1 °F 24.5 °F 0.7 °F 27% 30.17 in 10.0 mi SSW 6.9 mph - N/A   Clear
1:15 PM 32.0 °F 24.8 °F -0.4 °F 25% 30.16 in 10.0 mi South 8.1 mph - N/A   Clear
1:35 PM 32.4 °F 26.0 °F -2.4 °F 23% 30.16 in 10.0 mi South 6.9 mph - N/A   Clear
1:55 PM 32.7 °F 26.4 °F -1.5 °F 23% 30.16 in 10.0 mi SW 6.9 mph - N/A   Clear
2:15 PM 33.4 °F 25.4 °F -0.6 °F 24% 30.15 in 10.0 mi South 10.4 mph 17.3 mph N/A   Clear
2:35 PM 33.3 °F 26.4 °F -1.1 °F 23% 30.15 in 10.0 mi SSW 8.1 mph - N/A   Clear
2:55 PM 33.8 °F 27.0 °F -1.3 °F 22% 30.14 in 10.0 mi SW 8.1 mph - N/A   Clear
3:15 PM 33.8 °F 25.3 °F -1.1 °F 23% 30.14 in 10.0 mi SW 11.5 mph 18.4 mph N/A   Clear
3:35 PM 32.9 °F 24.7 °F -2.0 °F 22% 30.15 in 10.0 mi SW 10.4 mph - N/A   Clear
3:55 PM 33.1 °F 26.1 °F -3.1 °F 21% 30.15 in 10.0 mi SSW 8.1 mph - N/A   Clear
4:15 PM 32.9 °F 24.1 °F 1.0 °F 26% 30.15 in 10.0 mi SW 11.5 mph 17.3 mph N/A   Clear
4:35 PM 32.4 °F 25.3 °F 2.3 °F 28% 30.15 in 10.0 mi SW 8.1 mph - N/A   Clear
4:55 PM 32.0 °F 24.8 °F 2.8 °F 29% 30.15 in 10.0 mi WSW 8.1 mph - N/A   Clear
5:15 PM 31.8 °F 23.9 °F 3.4 °F 30% 30.16 in 10.0 mi WSW 9.2 mph - N/A   Clear
5:35 PM 31.1 °F 23.7 °F 3.4 °F 31% 30.16 in 10.0 mi SW 8.1 mph - N/A   Clear
5:55 PM 29.7 °F 23.7 °F 4.6 °F 35% 30.17 in 10.0 mi WSW 5.8 mph - N/A   Clear
6:15 PM 28.9 °F 23.9 °F 4.5 °F 35% 30.17 in 10.0 mi SW 4.6 mph - N/A   Clear
6:35 PM 27.7 °F - 4.6 °F 38% 30.17 in 10.0 mi Calm Calm - N/A   Clear
6:55 PM 24.1 °F - 3.9 °F 42% 30.19 in 10.0 mi Calm Calm - N/A   Clear
7:15 PM 19.6 °F - 4.8 °F 53% 30.19 in 10.0 mi Calm Calm - N/A   Clear
7:35 PM 19.8 °F - 5.9 °F 55% 30.19 in 10.0 mi Calm Calm - N/A   Clear
7:55 PM 16.3 °F - 5.0 °F 61% 30.19 in 10.0 mi Calm Calm - N/A   Clear
8:15 PM 17.8 °F - 3.0 °F 53% 30.19 in 10.0 mi Calm Calm - N/A   Clear
8:35 PM 18.3 °F 13.1 °F 5.2 °F 57% 30.20 in 10.0 mi NNE 3.5 mph - N/A   Clear
8:55 PM 16.7 °F 11.2 °F 4.3 °F 58% 30.20 in 10.0 mi NNE 3.5 mph - N/A   Clear
9:15 PM 17.2 °F 10.2 °F 3.6 °F 55% 30.21 in 10.0 mi NE 4.6 mph - N/A   Clear
9:35 PM 18.3 °F 11.5 °F 3.9 °F 53% 30.21 in 10.0 mi NE 4.6 mph - N/A   Clear
9:55 PM 15.4 °F 9.8 °F 3.7 °F 60% 30.21 in 10.0 mi ENE 3.5 mph - N/A   Clear
10:15 PM 13.5 °F 7.5 °F 2.1 °F 61% 30.21 in 10.0 mi NNE 3.5 mph - N/A   Clear
10:35 PM 13.6 °F - 3.4 °F 64% 30.21 in 10.0 mi Calm Calm - N/A   Clear
10:55 PM 13.8 °F - 2.8 °F 62% 30.22 in 10.0 mi Calm Calm - N/A   Clear
11:15 PM 13.8 °F - 5.5 °F 70% 30.22 in 10.0 mi Calm Calm - N/A   Clear
11:35 PM 10.2 °F - 3.2 °F 73% 30.21 in 10.0 mi Calm Calm - N/A   Clear
11:55 PM 10.2 °F - 3.2 °F 73% 30.21 in 10.0 mi Calm Calm - N/A   Clear